Lumberton, NC

10:52 AM EDT on October 21, 2017 (GMT -0400)
Lumberton Municipal

Weather History for KLBT - May, 2014

Change the Weather History Date:

Tuesday, May 13, 2014

  Actual Average Record
Temperature  
Mean Temperature 77 °F 69 °F  
Max Temperature 91 °F 82 °F 91 °F (2000)
Min Temperature 63 °F 56 °F 44 °F (2013)
Degree Days  
Heating Degree Days 0 1  
Month to date heating degree days 4 23  
Since 1 July heating degree days 2932 2752  
Cooling Degree Days 12 5  
Month to date cooling degree days 95 52  
Year to date cooling degree days 146 120  
Growing Degree Days 28 (Base 50)    
Moisture  
Dew Point 66 °F    
Average Humidity 72    
Maximum Humidity 100    
Minimum Humidity 44    
Precipitation  
Precipitation 0.00 in 0.08 in 0.55 in (2016)
Month to date precipitation 0.01 0.99  
Year to date precipitation 13.67 13.01  
Sea Level Pressure  
Sea Level Pressure 30.13 in    
Wind  
Wind Speed 5 mph (SSW)    
Max Wind Speed 13 mph    
Max Gust Speed 17 mph    
Visibility 10 miles    
Events      
T = Trace of Precipitation, MM = Missing Value Source: NWS Daily Summary

Daily Weather History Graph

Daily Weather History Graph

Search for Another Location

Airport or City:

Trip Planner

Search our weather history database for the weather conditions in past years. The results will help you decide how hot, cold, wet, or windy it might be!

Date:

Astronomy

May. 13, 2014 Rise Set
Actual Time 6:15 AM EDT 8:10 PM EDT
Civil Twilight 5:47 AM EDT 8:38 PM EDT
Nautical Twilight 5:13 AM EDT 9:12 PM EDT
Astronomical Twilight 4:37 AM EDT 9:48 PM EDT
Moon 7:13 PM EDT (5/13) 5:26 AM EDT (5/13)
Length of Visible Light 14h 51m
Length of Day
13h 55m
Waxing Gibbous, 98% of the Moon is Illuminated
May 13
Waxing Gibbous
May 14
Full
May 21
Last Quarter
May 28
New
Jun 5
First Quarter

Hourly Weather History & Observations

Time (EDT) Temp. Heat Index Dew Point Humidity Pressure Visibility Wind Dir Wind Speed Gust Speed Precip Events Conditions
12:54 AM 71.1 °F - 69.1 °F 93% 30.13 in - South 3.5 mph - N/A   Clear
2:54 AM 69.1 °F - 66.9 °F 93% 30.12 in - South 3.5 mph - N/A   Clear
3:54 AM 69.1 °F - 66.0 °F 90% 30.12 in - SW 3.5 mph - N/A   Clear
4:54 AM 66.9 °F - 64.9 °F 93% 30.13 in - SSW 3.5 mph - N/A   Clear
5:54 AM 66.0 °F - 64.9 °F 96% 30.14 in - Calm Calm - N/A   Clear
6:54 AM 66.9 °F - 66.0 °F 97% 30.15 in - Calm Calm - N/A   Clear
7:54 AM 71.1 °F - 68.0 °F 90% 30.16 in - SW 6.9 mph - N/A   Clear
9:54 AM 80.1 °F 82.1 °F 66.0 °F 62% 30.18 in - West 9.2 mph - N/A   Clear
10:54 AM 82.9 °F 84.4 °F 64.0 °F 53% 30.17 in - SW 8.1 mph - N/A   Clear
12:54 PM 88.0 °F 89.6 °F 64.9 °F 46% 30.16 in 10.0 mi Variable 6.9 mph - N/A   Clear
1:54 PM 90.0 °F 92.4 °F 66.0 °F 45% 30.14 in 10.0 mi SW 10.4 mph - N/A   Clear
2:54 PM 91.0 °F 93.8 °F 66.0 °F 44% 30.12 in 10.0 mi West 5.8 mph - N/A   Scattered Clouds
3:54 PM 90.0 °F 91.7 °F 64.9 °F 43% 30.10 in 10.0 mi South 6.9 mph - N/A   Clear
4:54 PM 89.1 °F 91.0 °F 64.9 °F 45% 30.09 in 10.0 mi South 8.1 mph - N/A   Clear
5:54 PM 89.1 °F 91.0 °F 64.9 °F 45% 30.08 in 10.0 mi SSW 5.8 mph - N/A   Mostly Cloudy
6:54 PM 86.0 °F 88.8 °F 66.9 °F 53% 30.08 in 10.0 mi SSE 5.8 mph - N/A   Partly Cloudy
7:54 PM 81.0 °F 83.3 °F 66.9 °F 62% 30.10 in 10.0 mi Variable 3.5 mph - N/A   Partly Cloudy
8:54 PM 78.1 °F - 64.9 °F 64% 30.11 in 10.0 mi SSE 5.8 mph - N/A   Clear
9:54 PM 75.0 °F - 64.9 °F 71% 30.13 in 10.0 mi SSE 3.5 mph - N/A   Clear
10:54 PM 73.0 °F - 64.0 °F 73% 30.15 in 10.0 mi SSE 3.5 mph - N/A   Clear
11:54 PM 71.1 °F - 64.9 °F 81% 30.16 in 10.0 mi Calm Calm - N/A   Clear